Volver al catálogo

COSMOS 375 DEB

ActivoLEO
NORAD 4942·DEBRIS·🇷🇺 Russia

Lanzado Oct 30, 1970 desde Baikonur Cosmodrome

Loading…

Próximos Pases (próximas 24 horas)

TLE

ActualizadoSource: Space-Track

Época: Sep 14, 2026, 14:30 UTC

1  4942U 70091AK  26257.60477715 -.00000042  00000-0  31751-4 0  9993
2  4942  63.0968 113.8321 0816264 261.1997  89.5818 12.95849717608662

Sigue COSMOS 375 DEB en tiempo real con AllMySat

Download on the App Store